Home > Time Zones > World Clock > Weather > Norway > Oslo > Past weeks

Flag for Norway Weather past 2 weeks in Oslo, Norway

Now
55 °F

Cool.


Feels Like: 55 °F
Forecast: 48 / 65 °F
Wind: 3 mph from South

Location: Oslo-Blindern

Current Time: Aug 2, 2015 at 4:39:41 AM

Latest Report: Aug 2, 2015 at 3:00 AM


Visibility: N/A

Pressure: 29.95 "Hg

Humidity: 88%

Dew point: 51 °F

Location of OsloLocation

Historic Weather in Oslo — Graph

°F

Oslo temperature yesterday

Maximum temperature yesterday: 69 °F (at 1:00 PM)
Minimum temperature yesterday: 49 °F (at 3:00 AM)
Average temperature yesterday: 60 °F

Past Weeks' High & Low Weather Summary

 TemperatureHumidityPressure
High74 °F (Jul 20, 2:00 PM)96% (Jul 18, 8:00 AM)29.95 "Hg (Jul 18, 8:00 AM)
Low47 °F (Jul 24, 5:00 AM)37% (Jul 23, 5:00 PM)29.35 "Hg (Jul 26, 1:00 PM)
Average59 °F72%29.62 "Hg
* Reported Jul 18 3:00 AM — Aug 2 3:00 AM, Oslo, Weather by CustomWeather, © 2015

Note: Actual official high and low records may vary slightly from our data, if they occured in-between our weather recording intervals... More about our weather records

Advertising

Oslo weather history for previous 24 hours

 ConditionsComfort  
Time TempWeatherWind HumidityBarometerVisibility
3:00 AM
Sun, Aug 2
55 °FCool.3 mph88%29.95 "HgN/A
2:00 AM56 °FLight rain. Overcast.3 mph85%29.95 "Hg16 mi
1:00 AM57 °FCool.5 mph83%29.95 "HgN/A
12:00 AM57 °FCool.3 mph74%29.95 "HgN/A
10:00 PM
Sat, Aug 1
58 °FCool.3 mph69%29.94 "HgN/A
9:00 PM59 °FCool.5 mph68%29.94 "HgN/A
8:00 PM62 °FScattered clouds.6 mph67%29.93 "Hg47 mi
6:00 PM65 °FMild.6 mph58%29.92 "HgN/A
5:00 PM66 °FScattered clouds.6 mph46%29.92 "Hg47 mi
4:00 PM67 °FMild.6 mph58%29.92 "HgN/A
3:00 PM65 °FMild.3 mph57%29.93 "HgN/A
2:00 PM67 °FOvercast.5 mph51%29.93 "Hg47 mi
1:00 PM69 °FMild.3 mph47%29.92 "HgN/A
12:00 PM68 °FMild.2 mph58%29.92 "HgN/A
11:00 AM64 °FScattered clouds.1 mph57%29.92 "Hg47 mi
10:00 AM64 °FMild.1 mph64%29.92 "HgN/A
9:00 AM60 °FCool.2 mph67%29.92 "HgN/A
8:00 AM57 °FScattered clouds.2 mph67%29.92 "Hg47 mi
7:00 AM51 °FCool.3 mph77%29.92 "HgN/A
4:00 AM49 °FCool.3 mph90%29.91 "HgN/A
Weather by CustomWeather, © 2015

See weather overviewHow to use our weather pages